Zurück zum Katalog

STARLINK-5376

AktivKommunikationVLEO
NORAD 56142·PAYLOAD·🇺🇸 United States

Gestartet Mar 29, 2023 von Cape Canaveral Space Force Station

Loading…

Nächste Überflüge (nächste 24 Stunden)

TLE

AktuellSource: CelesTrak SupGP

Epoche: Sep 15, 2026, 02:46 UTC

1 56142C 23046BB  26258.11576389  .00028695  00000+0  10394-2 0  2582
2 56142  43.0025 156.9003 0001532 274.6342  99.8357 15.27560791    12

Verfolge STARLINK-5376 in Echtzeit mit AllMySat

Download on the App Store